sat.trackr.live / text

‹ back to catalog

STARLINK-5215

NORAD 54759 · 2022-175B

PAYLOAD ACTIVE UNKNOWN

§ Identity

Operator
Country
US
Launch date
2022-12-17
Launch site
AFETR
Launch vehicle
Mass (kg)
RCS (m²)

Purposes: comms

External: N2YO · Heavens-Above · Gunter

§ Orbital elements

Epoch: 2026-09-20T15:20:21.640704Z

Period
94.01 min
Inclination
53.1588°
Eccentricity
0.0001268
Mean motion
15.31696680 rev/d
Perigee alt
469.9 km
Apogee alt
471.6 km
Semi-major
6,848.9 km
B*
2.7449e-5
RAAN
231.1246°
Arg perigee
96.9117°
Mean anomaly
263.2028°
Rev number
20,959

§ Raw data

STARLINK-52151 54759U 22175B   26263.63913936  .00000487  00000+0  27449-4 0  99942 54759  53.1588 231.1246 0001268  96.9117 263.2028 15.31696680209594

JSON: /api/v1/satellites/54759 · /tle

For live sub-satellite position, see the globe view (requires WebGL).

§ Visibility from observer

Set your observer location to see the next 7 days of passes ≥ 10°. The values pass through the URL so the page stays shareable.

No JS? Fill the form by hand. The geolocation button needs JavaScript.